Date String (YYYY-MM-DD hh:mm:ss) UTC,Instrument flags,absolute air pressure of the measurement (hPa),sample flow rate (lpm),inlet stack bypass flow (lpm),air temperature of the measurement (°C),ambient temperature measured by the external sensor (°C),aerosol sample conditioner tube jacket temperature (°C),OPC LED temperature (°C),internal box temperature (°C),relative humidity of the measurement (%),span deviation,mass concentration of particles derived from Lorenz-Mie calculation of OPC scattering (μg/m³),mass concentration of particles derived from Lorenz-Mie calculation of OPC scattering (μg/m³),mass concentration of particles derived from Lorenz-Mie calculation of OPC scattering (μg/m³)
DateTimeUTC,F1_M11,P_M11,Q1_M11,Q2_M11,T1_M11,T2_M11,T3_M11,T4_M11,T5_M11,U1_M11,ZSPAN_M11,X2_M11,X0_M11,X1_M11
2024-06-06 10:00:00,SystemResetWarning,0831.7,5.01,000.00,030.3,029.8,000.0,038.5,032.0,022.7,0000.0,0003.37,0014.79,0001.32
2024-06-06 10:01:00,SystemResetWarning,0831.8,5.00,000.00,030.4,029.8,000.0,038.5,032.1,022.7,0000.0,0003.40,0014.72,0001.31
2024-06-06 10:02:00,SystemResetWarning,0831.8,5.01,000.00,030.4,029.8,000.0,038.6,032.1,022.6,0000.0,0003.40,0014.05,0001.32
2024-06-06 10:03:00,SystemResetWarning,0831.9,5.00,000.00,030.4,029.8,000.0,038.6,032.1,022.5,0000.0,0003.38,0013.11,0001.33
2024-06-06 10:04:00,SystemResetWarning,0831.8,5.00,000.00,030.4,029.9,000.0,038.6,032.1,022.5,0000.0,0003.41,0013.60,0001.34
2024-06-06 10:05:00,SystemResetWarning,0831.7,4.99,000.00,030.4,029.9,000.0,038.6,032.2,022.5,0000.0,0003.41,0014.10,0001.35
2024-06-06 10:06:00,SystemResetWarning,0832.1,4.99,000.00,030.5,029.9,000.0,038.6,032.2,022.4,0000.0,0003.42,0013.83,0001.36
2024-06-06 10:07:00,SystemResetWarning,0832.3,5.00,000.00,030.5,029.9,000.0,038.7,032.2,022.5,0000.0,0003.44,0013.71,0001.37
2024-06-06 10:08:00,SystemResetWarning,0831.8,5.01,000.00,030.5,029.9,000.0,038.7,032.2,022.6,0000.0,0003.44,0013.78,0001.37
2024-06-06 10:09:00,SystemResetWarning,0831.9,5.01,000.00,030.5,029.9,000.0,038.7,032.2,022.5,0000.0,0003.41,0013.75,0001.36
2024-06-06 10:10:00,SystemResetWarning,0831.9,4.99,000.00,030.5,030.0,000.0,038.7,032.2,022.5,0000.0,0003.45,0014.30,0001.35
2024-06-06 10:11:00,SystemResetWarning,0831.9,4.99,000.00,030.6,030.0,000.0,038.7,032.3,022.5,0000.0,0003.49,0014.76,0001.34
2024-06-06 10:12:00,SystemResetWarning,0831.8,5.01,000.00,030.6,030.0,000.0,038.8,032.3,022.5,0000.0,0003.50,0015.11,0001.34
2024-06-06 10:13:00,SystemResetWarning,0831.8,5.01,000.00,030.6,030.0,000.0,038.8,032.3,022.5,0000.0,0003.53,0015.53,0001.35
2024-06-06 10:14:00,SystemResetWarning,0831.8,4.98,000.00,030.6,030.0,000.0,038.8,032.3,022.6,0000.0,0003.54,0016.77,0001.35
2024-06-06 10:15:00,SystemResetWarning,0831.8,5.00,000.00,030.6,030.0,000.0,038.8,032.3,022.6,0000.0,0003.56,0017.10,0001.36
2024-06-06 10:16:00,SystemResetWarning,0831.8,5.01,000.00,030.6,030.0,000.0,038.9,032.3,022.6,0000.0,0003.51,0016.38,0001.34
2024-06-06 10:17:00,SystemResetWarning,0831.8,5.00,000.00,030.6,030.0,000.0,038.9,032.3,022.5,0000.0,0003.49,0016.57,0001.34
2024-06-06 10:18:00,SystemResetWarning,0831.8,5.00,000.00,030.7,030.0,000.0,038.9,032.4,022.4,0000.0,0003.45,0016.32,0001.35
2024-06-06 10:19:00,SystemResetWarning,0831.9,5.01,000.00,030.7,030.1,000.0,038.9,032.4,022.5,0000.0,0003.45,0015.75,0001.35
2024-06-06 10:20:00,SystemResetWarning,0831.9,5.01,000.00,030.7,030.1,000.0,038.9,032.4,022.6,0000.0,0003.51,0015.85,0001.36
2024-06-06 10:21:00,SystemResetWarning,0831.8,5.00,000.00,030.7,030.1,000.0,038.9,032.4,022.5,0000.0,0003.51,0016.27,0001.37
2024-06-06 10:22:00,SystemResetWarning,0831.8,5.00,000.00,030.7,030.1,000.0,038.9,032.4,022.4,0000.0,0003.47,0016.52,0001.38
2024-06-06 10:23:00,SystemResetWarning,0831.8,5.01,000.00,030.7,030.1,000.0,039.0,032.4,022.4,0000.0,0003.49,0016.79,0001.40
2024-06-06 10:24:00,SystemResetWarning,0831.9,4.99,000.00,030.7,030.1,000.0,039.0,032.4,022.4,0000.0,0003.51,0016.96,0001.40
2024-06-06 10:25:00,SystemResetWarning,0831.9,4.99,000.00,030.8,030.1,000.0,039.0,032.5,022.3,0000.0,0003.52,0015.98,0001.41
2024-06-06 10:26:00,SystemResetWarning,0831.9,4.99,000.00,030.8,030.1,000.0,039.0,032.5,022.4,0000.0,0003.48,0015.71,0001.42
2024-06-06 10:27:00,SystemResetWarning,0831.9,5.00,000.00,030.8,030.1,000.0,039.0,032.4,022.4,0000.0,0003.51,0015.58,0001.43
2024-06-06 10:28:00,SystemResetWarning,0831.9,5.00,000.00,030.8,030.1,000.0,039.0,032.4,022.4,0000.0,0003.52,0015.11,0001.42
2024-06-06 10:29:00,SystemResetWarning,0831.9,5.00,000.00,030.8,030.1,000.0,039.0,032.4,022.3,0000.0,0003.51,0015.02,0001.41
2024-06-06 10:30:00,SystemResetWarning,0831.9,5.00,000.00,030.8,030.2,000.0,039.1,032.5,022.2,0000.0,0003.50,0016.43,0001.41
2024-06-06 10:31:00,SystemResetWarning,0831.9,5.00,000.00,030.8,030.2,000.0,039.1,032.5,022.2,0000.0,0003.52,0017.59,0001.43
2024-06-06 10:32:00,SystemResetWarning,0831.9,4.99,000.00,030.8,030.2,000.0,039.1,032.5,022.2,0000.0,0003.50,0016.82,0001.44
2024-06-06 10:33:00,SystemResetWarning,0831.9,5.00,000.00,030.8,030.2,000.0,039.1,032.5,022.3,0000.0,0003.48,0015.85,0001.43
2024-06-06 10:34:00,SystemResetWarning,0831.9,5.00,000.00,030.8,030.2,000.0,039.1,032.5,022.3,0000.0,0003.41,0015.43,0001.42
2024-06-06 10:35:00,SystemResetWarning,0831.9,5.00,000.00,030.8,030.2,000.0,039.1,032.5,022.3,0000.0,0003.37,0015.08,0001.43
2024-06-06 10:36:00,SystemResetWarning,0831.9,5.00,000.00,030.8,030.2,000.0,039.1,032.5,022.3,0000.0,0003.34,0015.56,0001.41
2024-06-06 10:37:00,SystemResetWarning,0831.9,4.99,000.00,030.8,030.2,000.0,039.1,032.5,022.2,0000.0,0003.40,0015.60,0001.41
2024-06-06 10:38:00,SystemResetWarning,0831.9,4.99,000.00,030.8,030.2,000.0,039.1,032.5,022.2,0000.0,0003.39,0016.00,0001.42
2024-06-06 10:39:00,SystemResetWarning,0832.0,5.00,000.00,030.8,030.2,000.0,039.1,032.5,022.1,0000.0,0003.43,0016.03,0001.42
2024-06-06 10:40:00,SystemResetWarning,0832.0,5.00,000.00,030.9,030.2,000.0,039.1,032.5,022.2,0000.0,0003.46,0016.34,0001.43
2024-06-06 10:41:00,SystemResetWarning,0832.0,5.00,000.00,030.9,030.2,000.0,039.2,032.5,022.2,0000.0,0003.44,0015.19,0001.42
2024-06-06 10:42:00,SystemResetWarning,0832.0,4.99,000.00,030.9,030.2,000.0,039.2,032.5,022.2,0000.0,0003.41,0013.51,0001.41
2024-06-06 10:43:00,SystemResetWarning,0832.0,5.00,000.00,030.9,030.2,000.0,039.2,032.5,022.1,0000.0,0003.40,0013.89,0001.41
2024-06-06 10:44:00,SystemResetWarning,0832.1,5.00,000.00,030.9,030.2,000.0,039.2,032.6,022.1,0000.0,0003.47,0014.77,0001.42
2024-06-06 10:45:00,SystemResetWarning,0832.0,5.01,000.00,030.9,030.2,000.0,039.2,032.6,022.0,0000.0,0003.48,0015.19,0001.43
2024-06-06 10:46:00,SystemResetWarning,0832.0,5.00,000.00,030.9,030.2,000.0,039.2,032.6,022.1,0000.0,0003.48,0016.25,0001.43
2024-06-06 10:47:00,SystemResetWarning,0832.1,5.00,000.00,030.9,030.2,000.0,039.2,032.6,022.1,0000.0,0003.50,0015.64,0001.44
2024-06-06 10:48:00,SystemResetWarning,0832.0,5.00,000.00,030.9,030.2,000.0,039.2,032.6,022.0,0000.0,0003.52,0016.04,0001.43
2024-06-06 10:49:00,SystemResetWarning,0832.0,4.99,000.00,030.9,030.2,000.0,039.2,032.6,022.0,0000.0,0003.52,0018.11,0001.42
2024-06-06 10:50:00,SystemResetWarning,0832.0,5.00,000.00,030.9,030.2,000.0,039.2,032.6,021.9,0000.0,0003.54,0019.51,0001.42
2024-06-06 10:51:00,SystemResetWarning,0832.0,5.00,000.00,030.9,030.2,000.0,039.3,032.6,021.9,0000.0,0003.52,0019.91,0001.43
2024-06-06 10:52:00,SystemResetWarning,0832.0,5.00,000.00,030.9,030.3,000.0,039.3,032.6,022.0,0000.0,0003.57,0019.78,0001.46
2024-06-06 10:53:00,SystemResetWarning,0832.0,4.99,000.00,030.9,030.3,000.0,039.3,032.6,022.0,0000.0,0003.60,0020.10,0001.46
2024-06-06 10:54:00,SystemResetWarning,0832.0,5.01,000.00,031.0,030.3,000.0,039.3,032.6,022.1,0000.0,0003.62,0020.13,0001.45
2024-06-06 10:55:00,SystemResetWarning,0832.0,5.01,000.00,031.0,030.3,000.0,039.3,032.6,022.1,0000.0,0003.62,0019.74,0001.45
2024-06-06 10:56:00,SystemResetWarning,0832.0,5.00,000.00,031.0,030.3,000.0,039.3,032.7,022.2,0000.0,0003.57,0019.05,0001.44
2024-06-06 10:57:00,SystemResetWarning,0832.1,4.99,000.00,031.0,030.3,000.0,039.3,032.7,022.2,0000.0,0003.57,0017.50,0001.42
2024-06-06 10:58:00,SystemResetWarning,0832.1,4.99,000.00,031.0,030.3,000.0,039.3,032.7,022.2,0000.0,0003.59,0017.61,0001.41
2024-06-06 10:59:00,SystemResetWarning,0832.1,5.01,000.00,031.0,030.3,000.0,039.3,032.7,022.1,0000.0,0003.54,0016.60,0001.40
